Aeroporto :
LOGIN :

Iscrizione | Disclaimer

   EN    FR    IT 

 










Sommario :    VFR   VFR Marginale   IFR   IFR Intensivo   IFR Molto Intensivo
Visibilità : 
Base nubi : 
>= 8 km
>= 3000ft
5 / 8 km
1000 / 3000 ft
1500m / 5 km
500 / 1000 ft
800 / 1500m
200 / 500 ft
< 800m
< 200 ft
Simboli :   Temporali  Nebbia  Neve Forte  Precipitazioni Forti  Vento > 20 kt
SIGMETs :   Varie  Temporali  Ghiacco  Turbolenza  Onda orograficha  Ceneri Vulcaniche






- Altitudine del aeroporto : 181 ft


ESIB - Satenas AB

ULTIMO METAR :
  • 190020Z AUTO 21007KT 0250 0200// R01/0800N R19/0800N FG VV002 12/12 Q1023

METARs OBSOLETI :
  • 182350Z AUTO 21006KT 0250 R01/0800N R19/0800N FG VV002 12/12 Q1023
  • 182320Z AUTO 20006KT 0450 R01/1300D R19/1400D FG VV002 12/12 Q1024
  • 182250Z AUTO 20006KT 0900 0600// R01/P2000N R19/1800D FG OVC002/// 12/12 Q1024
  • 182220Z AUTO 21008KT 5000 BKN002/// 12/12 Q1024
  • 182150Z AUTO 20007KT 9000 NCD 11/11 Q1024

Previsioni scadute.



MetMap, La meteo Aeronautica in un colpo d'occhio ! - Copyright ORBIFLY Dicembre 2007 - Disclaimer

ORBIFLY MET'MAP TEAM :

Programmazione e sviluppo : Alexandra Zaïnal
Concezione : Baudouin d'Aumeries
Aiuto per la programmazione : Marc-Olivier Méhu
Supporto tecnico e logistico : Manuel Goepfert
Aiuto per la traduzione : Arnaldo La Scala

Contatto : metmap@orbifly.com




FONTI E CREDITI :

   NOAA